Location: Chuathbaluk
(61.5726°N, 159.2454°W)
Time: 10:30:53
(UTC+00:00)

DELFI C3 - Visible Passes

Search period start: 17 January 2021 00:00
Search period end: 27 January 2021 00:00
Orbit: 534 x 548 km, 97.4° (Epoch: 16 January)

Date Brightness Start Highest point End Pass type
(mag) Time Alt. Az. Time Alt. Az. Time Alt. Az.
17 Jan ? 03:24:13 11° NE 03:24:44 11° NE 03:25:59 10° NNE visible
17 Jan ? 04:59:44 29° NNE 04:59:44 29° NNE 05:02:04 10° N visible
17 Jan ? 06:35:15 20° NW 06:35:15 20° NW 06:36:45 10° NNW visible
17 Jan ? 17:54:31 10° NE 17:57:01 16° E 17:59:30 10° SE visible
18 Jan ? 03:17:03 10° NE 03:17:47 10° NE 03:18:32 10° NNE visible
18 Jan ? 04:52:27 29° NNE 04:52:27 29° NNE 04:54:59 10° N visible
18 Jan ? 06:27:58 24° NW 06:27:58 24° NW 06:29:45 10° NNW visible
18 Jan ? 17:47:42 10° NE 17:49:53 14° E 17:52:03 10° ESE visible
19 Jan ? 04:45:11 28° NE 04:45:11 28° NE 04:47:54 10° N visible
19 Jan ? 06:20:41 27° NW 06:20:41 27° NW 06:22:44 10° NNW visible
19 Jan ? 17:40:57 10° NE 17:42:44 13° E 17:44:31 10° ESE visible
20 Jan ? 04:37:53 27° NE 04:37:53 27° NE 04:40:48 10° N visible
20 Jan ? 06:13:24 32° NW 06:13:24 32° NW 06:15:42 10° NNW visible
20 Jan ? 17:34:21 10° ENE 17:35:35 11° E 17:36:48 10° E visible
21 Jan ? 04:30:35 26° NE 04:30:35 26° NE 04:33:42 10° N visible
21 Jan ? 06:06:06 37° NW 06:06:06 37° NW 06:08:40 10° NNW visible
21 Jan ? 07:41:36 11° WNW 07:41:36 11° WNW 07:41:58 10° NW visible
22 Jan ? 04:23:17 23° ENE 04:23:23 23° NE 04:26:34 10° N visible
22 Jan ? 05:58:48 44° NNW 05:58:48 44° NNW 06:01:37 10° NNW visible
22 Jan ? 07:34:18 13° WNW 07:34:18 13° WNW 07:35:12 10° NW visible
23 Jan ? 04:15:58 21° ENE 04:16:24 21° NE 04:19:27 10° N visible
23 Jan ? 05:51:28 53° NNW 05:51:28 53° NNW 05:54:33 10° NNW visible
23 Jan ? 07:26:59 15° WNW 07:26:59 15° WNW 07:28:21 10° NW visible
24 Jan ? 04:08:39 19° ENE 04:09:25 20° NE 04:12:18 10° N visible
24 Jan ? 05:44:09 61° N 05:44:09 61° N 05:47:30 10° NNW visible
24 Jan ? 07:19:40 17° WNW 07:19:40 17° WNW 07:21:28 10° NW visible
25 Jan ? 04:01:19 16° ENE 04:02:25 18° NE 04:05:09 10° N visible
25 Jan ? 05:36:49 68° NNE 05:36:49 68° NNE 05:40:26 10° NNW visible
25 Jan ? 07:12:20 19° WNW 07:12:20 19° WNW 07:14:32 10° NW visible
26 Jan ? 03:53:58 14° ENE 03:55:26 17° NE 03:57:58 10° N visible
26 Jan ? 05:29:29 66° ENE 05:29:29 66° ENE 05:33:21 10° NNW visible
26 Jan ? 07:04:59 22° WNW 07:04:59 22° WNW 07:07:35 10° NW visible
